weather.gov     
National Weather Service

Terminal Aerodrome Forecast
NWS Homepage
This page is being discontinued on March 12, 2014.
The same data is available at this site. Please update your bookmarks.
Thank you, and we apologize for the inconvenience.
Please send an email to SR-SRH.Webmaster@noaa.gov with any concerns.


Current Version
Previous Version:    01  02  03  04  05  06  07  08  09  10  11  12  13  14  15  16  17  18  19  20  21  22  23  24  25  26  27  28  29  
[Printable]
229
FTUS43 KMPX 201300 AAA
TAFSTC
TAF AMD
KSTC 201329Z 2013/2112 17006KT P6SM OVC002
     FM201530 14004KT P6SM SCT250
     FM210100 12010KT P6SM BKN070
     FM210400 14007KT 6SM BR VCSH SCT006 OVC050
      TEMPO 2106/2109 4SM TSRA OVC050CB=


U.S. Dept. of Commerce
NOAA National Weather Service
1325 East West Highway
Silver Spring, MD 20910
E-mail: w-nws.webmaster@noaa.gov
Page last modified: May 16, 2007
NATIONAL WEATHER SERVICE: for Safety, for Work, for Fun - FOR LIFE